Miscellaneous Local Product
Issued by NWS Hastings, NE

Home | Current Version | Previous Version | Graphics & Text | Print | Product List | Glossary On
Versions: 1 2 3 4 5 6 7 8 9 10 11 12 13 14 15 16 17 18 19 20 21 22 23 24 25 26 27 28 29 30 31 32 33 34 35 36 37 38 39 40 41 42 43 44 45 46 47 48 49 50
000
AXUS43 KGID 230702
MISGRI

GID CWA HOURLY WEATHER ROUNDUP
NATIONAL WEATHER SERVICE HASTINGS NE
200 AM CDT SUN JUL 23 2017

NOTE: "FAIR" INDICATES FEW OR NO CLOUDS BELOW 12,000 FEET WITH NO
SIGNIFICANT WEATHER AND/OR OBSTRUCTIONS TO VISIBILITY.

...SOUTH CENTRAL NEBRASKA...

CITY           SKY/WX    TMP DP  RH WIND       PRES   REMARKS
GRAND ISLAND   CLEAR     66  66 100 CALM      29.99F
HASTINGS       CLEAR     71  67  87 N3        30.00F
KEARNEY        CLEAR     70  67  90 NW5       30.01S
ORD            CLEAR     63  60  90 SW3       29.99F FOG
YORK           MOCLDY    68  68 100 CALM      29.98S FOG
AURORA         CLEAR     67  67  99 CALM      29.98F
LEXINGTON      CLEAR     65  63  93 W5        30.04S
HOLDREGE       CLEAR     68  66  94 NW3       30.01F FOG
HEBRON         CLEAR     71  68  89 CALM      29.95F

...NEBRASKA PANHANDLE...

CITY           SKY/WX    TMP DP  RH WIND       PRES   REMARKS
CHADRON        CLEAR     62  53  72 CALM      30.08F
ALLIANCE       CLEAR     60  45  57 W3        30.12F
SCOTTSBLUFF    CLEAR     67  50  54 E6        30.13S
SIDNEY         CLEAR     57  46  66 SW8       30.17S

...WESTERN AND NORTH CENTRAL NEBRASKA...

CITY           SKY/WX    TMP DP  RH WIND       PRES   REMARKS
VALENTINE      CLEAR     71  45  39 VRB3      30.05R
AINSWORTH      CLEAR     70  55  59 W6        30.02S
ONEILL         CLEAR     67  62  84 SW6       29.99R
BROKEN BOW     CLEAR     63  61  93 CALM      30.03F
IMPERIAL       CLEAR     64  54  69 W5        30.09F
NORTH PLATTE   CLEAR     59  57  93 CALM      30.06F
MCCOOK         CLEAR     63  61  93 W3        30.04F

...EASTERN NEBRASKA...

CITY           SKY/WX    TMP DP  RH WIND       PRES   REMARKS
NORFOLK        CLEAR     65  63  93 CALM      29.96R
SO SIOUX CITY  FOG       67  67 100 W3        29.91F VSB 1
TEKAMAH        CLEAR     67  65  93 SW6       29.93S FOG
COLUMBUS       CLEAR     65  63  93 NW5       29.97S
ALBION         CLEAR     61  60  96 CALM      29.98S
OMAHA EPPLEY   MOCLDY    72  69  90 N3        29.93S
OFFUTT AFB     PTCLDY    73  69  86 SW3       29.92F
MILLARD        CLEAR     75  72  92 NW3       29.93S
LINCOLN        PTCLDY    73  70  90 W5        29.95F
NEBRASKA CITY  MOCLDY    75  75 100 CALM      29.94S
BEATRICE       CLEAR     75  69  84 CALM      29.94F
FALLS CITY     CLOUDY    76  68  76 CALM      29.92S

...NORTHERN KANSAS...

CITY           SKY/WX    TMP DP  RH WIND       PRES   REMARKS
GOODLAND       PTCLDY    62  55  77 W5        30.11S
HILL CITY      CLEAR     69  67  93 CALM      30.02R
NORTON         SUNNY     68  64  88 NW7       30.01
PHILLIPSBURG   CLEAR     73  73 100 N6        29.98S
SMITH CENTER   CLEAR     66  64  94 CALM      29.98R
HAYS           CLOUDY    69  66  90 W6        29.99F
RUSSELL        MOCLDY    70  66  87 W3        29.97R
CONCORDIA      PTCLDY    68  68 100 CALM      29.92S
SALINA         PTCLDY    76  66  71 SE10      29.92R
TOPEKA         CLOUDY    73  71  93 NW7       29.89S



USA.gov is the U.S. government's official web portal to all federal, state and local government web resources and services.